Volver al catálogo

BEIBUWAN-1

ActivoCienciaSSO
NORAD 66055·PAYLOAD·🇨🇳 China
Este nombre de satélite aún no ha sido confirmado por fuentes oficiales.

Lanzado Oct 19, 2025 desde Jiuquan Satellite Launch Center

Loading…

Próximos Pases (próximas 24 horas)

TLE

ActualizadoSource: Space-Track

Época: Sep 13, 2026, 18:17 UTC

1 66055U 25234C   26256.76240026  .00003464  00000-0  14209-3 0  9992
2 66055  97.4175 324.3295 0013872 200.6185 159.4495 15.24833351 50184

Sigue BEIBUWAN-1 en tiempo real con AllMySat

Download on the App Store